Location: Arbon
(43.0005°N, 0.7472°E)
Time: 20:25:12
(UTC+00:00)

Courier 1B Rocket - Pass Details

Date: 27 November 2020
Orbit: 920 x 1202 km, 28.2° (Epoch: 22 January)

Event Time Altitude Azimuth Distance (km) Brightness Sun altitude
Rises 05:51:37 0° 221° (SW) 4,088 8.0 -13.1°
Reaches altitude 10° 05:55:28 10° 204° (SSW) 3,116 7.6 -12.4°
Maximum altitude 06:00:29 19° 163° (SSE) 2,493 7.6 -11.5°
Drops below altitude 10° 06:05:24 10° 123° (ESE) 3,043 9.0 -10.7°
Sets 06:09:05 0° 106° (ESE) 3,959 10.5 -10.0°
